KOSTKA

基本信息
目录编号:
69935
目录名称:
KOSTKA
国际标识:
2026-156BU
轨道中心:
EARTH
卫星名称:
KOSTKA
卫星全名:
KOSTKA
卫星状态:
在轨 (已飞行66 天)
发射日期:
2026-07-07 UTC
国别 :
(CZCH)
星等 :
--
该卫星已列入 空间交会检测服务 Space Conjunction Data Service (SCDS) ,当前飞行风险评估等级: 无高风险
轨道信息
数据来源 国际轨道数据
星历时间: 2026-09-11T00:56:21+0800
14小时前
查看轨道信息
半长轴: 6967.656km
偏心率: 0.0008594
轨道倾角: 97.741°
近地点辐角 303.315°
升交点赤经 153.104°
平近点角 56.725°
近地点: 583.53km
远地点: 595.508km
周期: 96.469分钟
每日圈数: 14.927009
详细信息
使用方式:
暂无
2D轨道图
3D轨道图
轨道高度分析图
轨道倾角分析图
轨道综合分析图
查看轨道综合分析图
与全量物体交会距离演化趋势
与全量物体交会风险概率演化趋势